Regional Weather Roundup
Issued by NWS

Home | Current Version | Previous Version | Graphics & Text | Print | Product List | Glossary On
Versions: 1 2 3 4 5 6 7 8 9 10 11 12 13 14 15 16 17 18 19 20 21 22 23 24 25 26 27 28 29 30 31 32 33 34 35 36 37 38 39 40 41 42 43 44 45 46 47 48 49 50
000
ASUS45 KABQ 262201
RWRNM
NEW MEXICO REGIONAL WEATHER ROUNDUP
NATIONAL WEATHER SERVICE ALBUQUERQUE NM
300 PM MST SUN FEB 26 2017

NOTE: "FAIR" MEANS FEW OR NO CLOUDS BELOW 12,000 FEET AGL WITH NO
       SIGNIFICANT WEATHER OR OBSTRUCTIONS TO VISION.

      THIS PRODUCT IS RELEASED AS TWO VERSIONS.  ONE VERSION NEAR
      THE TOP OF THE HOUR CONTAINING PRELIMINARY DATA FROM ALBUQUERQUE
      AND OTHER STATIONS.  A FINAL VERSION WITH ADDITIONAL DATA IS
      ISSUED ABOUT 10 MINUTES AFTER THE HOUR.

NMZ501-503-504-510>518-262300-
NORTHWEST PLATEAU/NORTHCENTRAL MOUNTAINS

CITY           SKY/WX    TMP DP  RH WIND       PRES   REMARKS
FARMINGTON     FAIR      44   8  23 W13       29.86F
LOS ALAMOS     PTSUNNY   36  17  44 S10       29.88S WCI  29
SANTA FE       PTSUNNY   40  20  44 W14       29.88S WCI  32
TAOS           PTSUNNY   39   5  24 W21       29.82F WCI  29
ANGEL FIRE     PTSUNNY   31   6  33 W14G30    29.81R WCI  21

$$
NMZ402-403-502-505>509-262300-
WESTCENTRAL MOUNTAINS/SOUTHWEST MOUNTAINS

CITY           SKY/WX    TMP DP  RH WIND       PRES   REMARKS
GALLUP         CLOUDY    37  22  54 W6        29.89F WCI  32
GRANTS         CLOUDY    41  25  54 W13       29.91F
SILVER CITY    FAIR      52  17  25 NW18G29   29.90S

$$
NMZ407-409-411-412-262300-
SOUTHERN DESERTS

CITY           SKY/WX    TMP DP  RH WIND       PRES   REMARKS
DEMING         FAIR      62  22  21 W28G35    29.86F
LAS CRUCES     FAIR      63  20  19 SW26G39   29.86F
HOLLOMAN AFB   PTSUNNY   64  17  16 SW24G31   29.88F
ALAMOGORDO     PTSUNNY   63  16  16 SW22G39   29.87R
T OR C         CLOUDY    55  19  24 W24G35    29.86F

$$
NMZ519>523-262300-
CENTRAL VALLEYS/CENTRAL HIGHLANDS

CITY           SKY/WX    TMP DP  RH WIND       PRES   REMARKS
ALBUQUERQUE    CLOUDY    41  26  55 NE15      29.90F
DOUBLE EAGLE   CLOUDY    39  23  52 N12       29.90F WCI  32
MORIARTY ARPT  FAIR      42  21  43 W13G24    29.90S
CLINES CORNERS PTSUNNY   40  17  39 NW24G33   29.88R WCI  29
BELEN          CLOUDY    46  17  30 NE7       29.89S
SOCORRO        FAIR      49  24  37 SW14      29.89F

$$
NMZ524>526-539-540-262300-
SOUTHCENTRAL MOUNTAINS

CITY           SKY/WX    TMP DP  RH WIND       PRES   REMARKS
RUIDOSO        NOT AVBL

$$
NMZ527>531-262300-
NORTHEAST HIGHLANDS/NORTHEAST PLAINS

CITY           SKY/WX    TMP DP  RH WIND       PRES   REMARKS
LAS VEGAS      FAIR      43  13  29 W23G36    29.83R
RATON          CLOUDY    44   0  16 NW15G28   29.76R
CLAYTON        PTSUNNY   54   2  12 SW21G28   29.75F

$$
NMZ532>537-262300-
EASTCENTRAL PLAINS

CITY           SKY/WX    TMP DP  RH WIND       PRES   REMARKS
TUCUMCARI      FAIR      57  12  17 W23G33    29.78S
CANNON AFB     CLOUDY    56  16  20 W23       29.83S
CLOVIS AIRPORT PTSUNNY   57  18  21 W24G31    29.83S

$$
NMZ028-029-538-262300-
SOUTHEAST PLAINS

CITY           SKY/WX    TMP DP  RH WIND       PRES   REMARKS
ROSWELL        CLOUDY    64  10  12 E8        29.84S
ARTESIA        FAIR      66  14  13 W20G30    29.81S
CARLSBAD       FAIR      69  15  12 SW21G30   29.80S
HOBBS          CLOUDY    64   9  11 SW17G24   29.83F


$$



USA.gov is the U.S. government's official web portal to all federal, state and local government web resources and services.